Rochester, MN

12:43 AM CDT on March 25, 2017 (GMT -0500)
Rochester International

Weather History for KRST - October, 2011

Change the Weather History Date:

Monday, October 17, 2011

  Actual Average Record
Temperature  
Mean Temperature 48 °F 48 °F  
Max Temperature 58 °F 58 °F 85 °F (1910)
Min Temperature 37 °F 38 °F 18 °F (1976)
Degree Days  
Heating Degree Days 17 17  
Month to date heating degree days 107 242  
Since 1 July heating degree days 322 457  
Cooling Degree Days 0 0  
Month to date cooling degree days 26 4  
Year to date cooling degree days 706 583  
Moisture  
Dew Point 29 °F    
Average Humidity 54    
Maximum Humidity 76    
Minimum Humidity 32    
Precipitation  
Precipitation 0.00 in 0.07 in 0.61 in (1937)
Month to date precipitation 0.23 1.35  
Year to date precipitation 26.11 28.99  
Snow  
Snow 0.00 in 0.00 in 0.20 in (1990)
Month to date snowfall 0.0 0.2  
Since 1 July snowfall 0.0 0.2  
Snow Depth 0.00 in    
Sea Level Pressure  
Sea Level Pressure 29.89 in    
Wind  
Wind Speed 15 mph (WNW)    
Max Wind Speed 28 mph    
Max Gust Speed 35 mph    
Visibility 10 miles    
Events      
T = Trace of Precipitation, MM = Missing Value Source: NWS Daily Summary

Daily Weather History Graph

Daily Weather History Graph

Search for Another Location

Airport or City:

Trip Planner

Search our weather history database for the weather conditions in past years. The results will help you decide how hot, cold, wet, or windy it might be!

Date:

Astronomy

Oct. 17, 2011 Rise Set
Actual Time 7:26 AM CDT 6:23 PM CDT
Civil Twilight 6:57 AM CDT 6:52 PM CDT
Nautical Twilight 6:24 AM CDT 7:25 PM CDT
Astronomical Twilight 5:50 AM CDT 7:59 PM CDT
Moon 9:56 PM CDT (10/17) 12:41 PM CDT (10/17)
Length of Visible Light 11h 54m
Length of Day
10h 56m
Waning Gibbous, 74% of the Moon is Illuminated
Oct 17
Waning Gibbous
Oct 19
Last Quarter
Oct 26
New
Nov 2
First Quarter
Nov 10
Full

Hourly Weather History & Observations

Time (CDT) Temp. Windchill Dew Point Humidity Pressure Visibility Wind Dir Wind Speed Gust Speed Precip Events Conditions
12:54 AM 42.1 °F 34.9 °F 30.9 °F 65% 29.91 in 10.0 mi West 13.8 mph - N/A   Clear
1:54 AM 39.9 °F 32.5 °F 30.9 °F 70% 29.91 in 10.0 mi West 12.7 mph - N/A   Clear
2:54 AM 37.4 °F 28.5 °F 30.2 °F 75% 29.89 in 10.0 mi West 15.0 mph - N/A   Clear
3:54 AM 39.0 °F 31.0 °F 30.9 °F 73% 29.90 in 10.0 mi West 13.8 mph - N/A   Clear
4:54 AM 37.0 °F 28.5 °F 30.9 °F 79% 29.90 in 10.0 mi West 13.8 mph - N/A   Clear
5:54 AM 37.0 °F 28.5 °F 30.9 °F 79% 29.91 in 10.0 mi West 13.8 mph - N/A   Clear
6:54 AM 37.0 °F 28.1 °F 30.9 °F 79% 29.91 in 10.0 mi West 15.0 mph - N/A   Clear
7:54 AM 37.9 °F 30.0 °F 30.9 °F 76% 29.91 in 10.0 mi WNW 12.7 mph - N/A   Clear
8:54 AM 42.1 °F 34.5 °F 32.0 °F 67% 29.91 in 10.0 mi WNW 15.0 mph - N/A   Clear
9:54 AM 46.9 °F - 32.0 °F 56% 29.91 in 10.0 mi West 16.1 mph - N/A   Clear
10:54 AM 50.0 °F - 32.0 °F 50% 29.91 in 10.0 mi WNW 18.4 mph 25.3 mph N/A   Clear
11:54 AM 52.0 °F - 28.9 °F 41% 29.90 in 10.0 mi West 24.2 mph 31.1 mph N/A   Clear
12:54 PM 54.0 °F - 28.0 °F 37% 29.89 in 10.0 mi WNW 23.0 mph 29.9 mph N/A   Clear
1:54 PM 55.9 °F - 28.0 °F 34% 29.88 in 10.0 mi West 24.2 mph 31.1 mph N/A   Clear
2:54 PM 57.0 °F - 28.0 °F 33% 29.87 in 10.0 mi West 25.3 mph 34.5 mph N/A   Clear
3:54 PM 55.9 °F - 27.0 °F 33% 29.86 in 10.0 mi WNW 21.9 mph 29.9 mph N/A   Clear
4:54 PM 55.9 °F - 27.0 °F 33% 29.86 in 10.0 mi WNW 18.4 mph 26.5 mph N/A   Clear
5:54 PM 53.1 °F - 26.1 °F 35% 29.86 in 10.0 mi WNW 18.4 mph - N/A   Clear
6:54 PM 50.0 °F - 27.0 °F 41% 29.88 in 10.0 mi WNW 11.5 mph - N/A   Clear
7:54 PM 46.9 °F - 28.0 °F 48% 29.88 in 10.0 mi WNW 8.1 mph - N/A   Clear
8:54 PM 43.0 °F 38.2 °F 28.0 °F 56% 29.89 in 10.0 mi WNW 8.1 mph - N/A   Clear
9:54 PM 41.0 °F 35.8 °F 28.4 °F 61% 29.87 in 10.0 mi West 8.1 mph - N/A   Clear
10:54 PM 43.0 °F 37.2 °F 30.0 °F 60% 29.89 in 10.0 mi WNW 10.4 mph - N/A   Clear
11:54 PM 39.2 °F 33.6 °F 30.2 °F 70% 29.88 in 10.0 mi West 8.1 mph - N/A   Clear